Time,TemperatureF,DewpointF,PressureIn,WindDirection,WindDirectionDegrees,WindSpeedMPH,WindSpeedGustMPH,Humidity,HourlyPrecipIn,Conditions,Clouds,dailyrainin,SoftwareType,DateUTC
2013-01-24 08:50:00,19.9,13.3,30.43,South,169,0.0,0.0,75,0.00,,,0.00,Wunderground v.1.15,2013-01-24 15:50:00,
2013-01-24 08:55:00,20.2,13.8,30.43,SSE,164,0.0,0.0,76,0.00,,,0.00,Wunderground v.1.15,2013-01-24 15:55:00,
2013-01-24 09:01:00,20.7,13.7,30.43,SSE,160,0.0,0.0,74,0.00,,,0.00,Wunderground v.1.15,2013-01-24 16:01:00,
2013-01-24 09:10:00,22.0,14.7,30.43,SSE,159,0.0,0.0,73,0.00,,,0.00,Wunderground v.1.15,2013-01-24 16:10:00,
2013-01-24 09:15:00,22.7,14.4,30.43,WNW,302,0.0,0.0,70,0.00,,,0.00,Wunderground v.1.15,2013-01-24 16:15:00,
2013-01-24 09:20:00,23.5,15.1,30.42,NE,48,0.0,0.0,70,0.00,,,0.00,Wunderground v.1.15,2013-01-24 16:20:00,
2013-01-24 09:25:00,24.8,14.7,30.42,SSW,193,0.0,0.0,65,0.00,,,0.00,Wunderground v.1.15,2013-01-24 16:25:00,
2013-01-24 09:30:00,26.9,14.5,30.41,SW,221,0.0,0.0,59,0.00,,,0.00,Wunderground v.1.15,2013-01-24 16:30:00,
2013-01-24 09:35:00,29.0,15.7,30.41,NW,315,0.0,1.0,57,0.00,,,0.00,Wunderground v.1.15,2013-01-24 16:35:00,
2013-01-24 09:45:00,37.9,15.1,30.41,WNW,302,2.0,5.0,39,0.00,,,0.00,Wunderground v.1.15,2013-01-24 16:45:00,
2013-01-24 09:55:00,41.5,13.1,30.41,NW,321,4.0,8.0,31,0.00,,,0.00,Wunderground v.1.15,2013-01-24 16:55:00,
2013-01-24 10:01:00,42.3,13.0,30.40,WNW,292,4.0,6.0,30,0.00,,,0.00,Wunderground v.1.15,2013-01-24 17:01:00,
2013-01-24 10:10:00,43.9,11.2,30.40,WNW,286,7.0,9.0,26,0.00,,,0.00,Wunderground v.1.15,2013-01-24 17:10:00,
2013-01-24 10:15:00,44.3,11.5,30.40,NW,325,9.0,9.0,26,0.00,,,0.00,Wunderground v.1.15,2013-01-24 17:15:00,
2013-01-24 10:20:00,44.5,11.7,30.39,NNW,331,9.0,9.0,26,0.00,,,0.00,Wunderground v.1.15,2013-01-24 17:20:00,
2013-01-24 10:25:00,44.7,11.0,30.39,NNW,332,9.0,9.0,25,0.00,,,0.00,Wunderground v.1.15,2013-01-24 17:25:00,
2013-01-24 10:35:00,44.6,11.8,30.39,NW,320,10.0,10.0,26,0.00,,,0.00,Wunderground v.1.15,2013-01-24 17:35:00,
2013-01-24 10:45:00,44.1,11.3,30.39,NW,312,9.0,9.0,26,0.00,,,0.00,Wunderground v.1.15,2013-01-24 17:45:00,
2013-01-24 10:50:00,43.8,11.1,30.38,NNW,337,9.0,9.0,26,0.00,,,0.00,Wunderground v.1.15,2013-01-24 17:50:00,
2013-01-24 11:01:00,43.6,12.6,30.38,NNW,344,8.0,8.0,28,0.00,,,0.00,Wunderground v.1.15,2013-01-24 18:01:00,
2013-01-24 11:10:00,45.3,11.5,30.38,NNW,346,7.0,7.0,25,0.00,,,0.00,Wunderground v.1.15,2013-01-24 18:10:00,
2013-01-24 11:20:00,46.4,12.4,30.37,NNW,345,10.0,13.0,25,0.00,,,0.00,Wunderground v.1.15,2013-01-24 18:20:00,
2013-01-24 11:30:00,46.7,13.6,30.37,NNW,344,10.0,10.0,26,0.00,,,0.00,Wunderground v.1.15,2013-01-24 18:30:00,
2013-01-24 11:40:00,46.5,13.4,30.37,NNW,333,11.0,15.0,26,0.00,,,0.00,Wunderground v.1.15,2013-01-24 18:40:00,
2013-01-24 11:50:00,46.6,13.5,30.36,NNW,338,11.0,11.0,26,0.00,,,0.00,Wunderground v.1.15,2013-01-24 18:50:00,
2013-01-24 11:55:00,46.5,13.4,30.35,NW,313,13.0,13.0,26,0.00,,,0.00,Wunderground v.1.15,2013-01-24 18:55:00,
2013-01-24 12:01:00,46.5,14.3,30.35,NNW,329,11.0,11.0,27,0.00,,,0.00,Wunderground v.1.15,2013-01-24 19:01:00,
2013-01-24 12:10:00,46.6,14.4,30.34,NW,319,11.0,15.0,27,0.00,,,0.00,Wunderground v.1.15,2013-01-24 19:10:00,
2013-01-24 12:15:00,46.6,14.4,30.34,NNW,329,12.0,15.0,27,0.00,,,0.00,Wunderground v.1.15,2013-01-24 19:15:00,
2013-01-24 12:30:00,47.0,14.7,30.33,NW,318,9.0,9.0,27,0.00,,,0.00,Wunderground v.1.15,2013-01-24 19:30:00,
2013-01-24 12:35:00,46.8,14.5,30.33,NNW,340,9.0,19.0,27,0.00,,,0.00,Wunderground v.1.15,2013-01-24 19:35:00,
2013-01-24 12:45:00,47.0,15.5,30.32,NW,323,10.0,10.0,28,0.00,,,0.00,Wunderground v.1.15,2013-01-24 19:45:00,
2013-01-24 12:55:00,47.0,16.3,30.32,NNW,342,13.0,13.0,29,0.00,,,0.00,Wunderground v.1.15,2013-01-24 19:55:00,
2013-01-24 13:01:00,47.1,14.8,30.32,NNW,346,13.0,13.0,27,0.00,,,0.00,Wunderground v.1.15,2013-01-24 20:01:00,
2013-01-24 13:10:00,47.4,15.9,30.31,NNW,347,11.0,11.0,28,0.00,,,0.00,Wunderground v.1.15,2013-01-24 20:10:00,
2013-01-24 13:15:00,47.4,15.9,30.31,NNW,344,11.0,13.0,28,0.00,,,0.00,Wunderground v.1.15,2013-01-24 20:15:00,
2013-01-24 13:25:00,47.4,15.9,30.30,NNW,341,13.0,13.0,28,0.00,,,0.00,Wunderground v.1.15,2013-01-24 20:25:00,
2013-01-24 13:30:00,47.4,15.9,30.30,NNW,336,12.0,12.0,28,0.00,,,0.00,Wunderground v.1.15,2013-01-24 20:30:00,
2013-01-24 13:40:00,47.7,16.9,30.30,NNW,344,10.0,10.0,29,0.00,,,0.00,Wunderground v.1.15,2013-01-24 20:40:00,
2013-01-24 13:50:00,47.6,17.6,30.30,NNW,340,10.0,23.0,30,0.00,,,0.00,Wunderground v.1.15,2013-01-24 20:50:00,
2013-01-24 14:01:00,47.5,17.6,30.29,NNW,332,9.0,11.0,30,0.00,,,0.00,Wunderground v.1.15,2013-01-24 21:01:00,
2013-01-24 14:10:00,47.5,17.6,30.29,NNW,334,10.0,10.0,30,0.00,,,0.00,Wunderground v.1.15,2013-01-24 21:10:00,
2013-01-24 14:20:00,47.6,18.4,30.29,NW,318,10.0,22.0,31,0.00,,,0.00,Wunderground v.1.15,2013-01-24 21:20:00,
2013-01-24 14:30:00,47.4,19.0,30.28,NNW,331,10.0,10.0,32,0.00,,,0.00,Wunderground v.1.15,2013-01-24 21:30:00,
2013-01-24 14:40:00,47.4,19.0,30.29,WNW,303,10.0,10.0,32,0.00,,,0.00,Wunderground v.1.15,2013-01-24 21:40:00,
2013-01-24 14:45:00,47.4,19.0,30.29,NW,318,11.0,11.0,32,0.00,,,0.00,Wunderground v.1.15,2013-01-24 21:45:00,
2013-01-24 14:55:00,47.1,19.4,30.29,North,349,12.0,25.0,33,0.00,,,0.00,Wunderground v.1.15,2013-01-24 21:55:00,
2013-01-24 15:01:00,46.9,19.3,30.29,NW,318,11.0,11.0,33,0.00,,,0.00,Wunderground v.1.15,2013-01-24 22:01:00,
2013-01-24 15:10:00,46.9,19.3,30.29,NNW,330,10.0,10.0,33,0.00,,,0.00,Wunderground v.1.15,2013-01-24 22:10:00,
2013-01-24 15:20:00,46.7,19.1,30.29,NNW,331,9.0,9.0,33,0.00,,,0.00,Wunderground v.1.15,2013-01-24 22:20:00,
2013-01-24 15:25:00,46.6,19.0,30.30,NNW,338,10.0,12.0,33,0.00,,,0.00,Wunderground v.1.15,2013-01-24 22:25:00,
2013-01-24 15:35:00,46.2,18.6,30.29,NNW,341,12.0,12.0,33,0.00,,,0.00,Wunderground v.1.15,2013-01-24 22:35:00,
2013-01-24 15:45:00,46.2,19.3,30.29,NNW,346,11.0,15.0,34,0.00,,,0.00,Wunderground v.1.15,2013-01-24 22:45:00,
2013-01-24 15:55:00,46.1,19.2,30.30,NNW,348,10.0,19.0,34,0.00,,,0.00,Wunderground v.1.15,2013-01-24 22:55:00,
2013-01-24 16:01:00,46.0,18.5,30.30,NW,326,11.0,16.0,33,0.00,,,0.00,Wunderground v.1.15,2013-01-24 23:01:00,
2013-01-24 16:10:00,46.0,18.5,30.30,WNW,286,11.0,11.0,33,0.00,,,0.00,Wunderground v.1.15,2013-01-24 23:10:00,
2013-01-24 16:15:00,45.7,18.2,30.30,WNW,303,10.0,11.0,33,0.00,,,0.00,Wunderground v.1.15,2013-01-24 23:15:00,
2013-01-24 16:20:00,45.5,18.7,30.30,NW,318,10.0,10.0,34,0.00,,,0.00,Wunderground v.1.15,2013-01-24 23:20:00,
2013-01-24 16:30:00,45.2,18.5,30.30,NW,311,9.0,11.0,34,0.00,,,0.00,Wunderground v.1.15,2013-01-24 23:30:00,
2013-01-24 16:35:00,45.1,19.0,30.30,NNW,327,10.0,23.0,35,0.00,,,0.00,Wunderground v.1.15,2013-01-24 23:35:00,
2013-01-24 16:40:00,45.1,19.0,30.30,NW,323,11.0,11.0,35,0.00,,,0.00,Wunderground v.1.15,2013-01-24 23:40:00,
2013-01-24 16:45:00,44.9,18.9,30.30,NNW,343,11.0,23.0,35,0.00,,,0.00,Wunderground v.1.15,2013-01-24 23:45:00,
2013-01-24 16:55:00,44.8,19.4,30.31,NNW,330,10.0,12.0,36,0.00,,,0.00,Wunderground v.1.15,2013-01-24 23:55:00,
2013-01-24 17:01:00,44.7,20.0,30.31,WNW,301,10.0,16.0,37,0.00,,,0.00,Wunderground v.1.15,2013-01-25 00:01:00,
2013-01-24 17:10:00,44.3,19.6,30.31,NW,315,9.0,9.0,37,0.00,,,0.00,Wunderground v.1.15,2013-01-25 00:10:00,
2013-01-24 17:15:00,44.2,19.5,30.31,NW,323,9.0,15.0,37,0.00,,,0.00,Wunderground v.1.15,2013-01-25 00:15:00,
2013-01-24 17:20:00,44.1,20.1,30.31,NNE,23,9.0,9.0,38,0.00,,,0.00,Wunderground v.1.15,2013-01-25 00:20:00,
2013-01-24 17:25:00,44.0,20.0,30.30,NW,317,8.0,9.0,38,0.00,,,0.00,Wunderground v.1.15,2013-01-25 00:25:00,
2013-01-24 17:35:00,43.6,20.8,30.30,WNW,300,8.0,8.0,40,0.00,,,0.00,Wunderground v.1.15,2013-01-25 00:35:00,
2013-01-24 17:45:00,43.3,20.0,30.31,NNW,330,7.0,8.0,39,0.00,,,0.00,Wunderground v.1.15,2013-01-25 00:45:00,
2013-01-24 17:50:00,43.0,20.3,30.31,NW,321,7.0,12.0,40,0.00,,,0.00,Wunderground v.1.15,2013-01-25 00:50:00,
2013-01-24 18:00:00,42.7,20.6,30.31,NW,323,8.0,13.0,41,0.00,,,0.00,Wunderground v.1.15,2013-01-25 01:00:00,
2013-01-24 18:10:00,42.4,20.9,30.31,NW,316,7.0,9.0,42,0.00,,,0.00,Wunderground v.1.15,2013-01-25 01:10:00,
2013-01-24 18:15:00,42.2,20.7,30.32,NNW,331,7.0,10.0,42,0.00,,,0.00,Wunderground v.1.15,2013-01-25 01:15:00,
2013-01-24 18:20:00,42.1,20.6,30.32,NNW,329,6.0,7.0,42,0.00,,,0.00,Wunderground v.1.15,2013-01-25 01:20:00,
2013-01-24 18:30:00,41.9,20.4,30.32,WNW,301,7.0,7.0,42,0.00,,,0.00,Wunderground v.1.15,2013-01-25 01:30:00,
2013-01-24 18:35:00,41.7,20.3,30.32,NNW,336,7.0,17.0,42,0.00,,,0.00,Wunderground v.1.15,2013-01-25 01:35:00,
2013-01-24 18:45:00,41.3,20.5,30.32,NNW,327,7.0,17.0,43,0.00,,,0.00,Wunderground v.1.15,2013-01-25 01:45:00,
2013-01-24 18:55:00,40.9,20.6,30.32,NNW,341,7.0,17.0,44,0.00,,,0.00,Wunderground v.1.15,2013-01-25 01:55:00,
2013-01-24 19:01:00,40.9,20.6,30.32,NW,313,7.0,7.0,44,0.00,,,0.00,Wunderground v.1.15,2013-01-25 02:01:00,
2013-01-24 19:10:00,40.7,20.5,30.32,NNW,332,6.0,8.0,44,0.00,,,0.00,Wunderground v.1.15,2013-01-25 02:10:00,
2013-01-24 19:15:00,40.7,20.5,30.32,WNW,298,6.0,11.0,44,0.00,,,0.00,Wunderground v.1.15,2013-01-25 02:15:00,
2013-01-24 19:25:00,40.3,20.6,30.32,WNW,296,6.0,6.0,45,0.00,,,0.00,Wunderground v.1.15,2013-01-25 02:25:00,
2013-01-24 19:30:00,40.3,20.1,30.32,WNW,298,6.0,6.0,44,0.00,,,0.00,Wunderground v.1.15,2013-01-25 02:30:00,
2013-01-24 19:35:00,40.2,20.0,30.31,NW,305,6.0,16.0,44,0.00,,,0.00,Wunderground v.1.15,2013-01-25 02:35:00,
2013-01-24 19:40:00,40.1,19.9,30.31,NNW,335,5.0,16.0,44,0.00,,,0.00,Wunderground v.1.15,2013-01-25 02:40:00,
2013-01-24 19:50:00,39.8,20.2,30.31,WNW,288,5.0,5.0,45,0.00,,,0.00,Wunderground v.1.15,2013-01-25 02:50:00,
2013-01-24 19:55:00,39.5,20.4,30.31,NW,306,5.0,5.0,46,0.00,,,0.00,Wunderground v.1.15,2013-01-25 02:55:00,
2013-01-24 20:01:00,39.3,20.2,30.30,NNW,343,5.0,6.0,46,0.00,,,0.00,Wunderground v.1.15,2013-01-25 03:01:00,
2013-01-24 20:10:00,39.7,20.6,30.30,NW,314,6.0,7.0,46,0.00,,,0.00,Wunderground v.1.15,2013-01-25 03:10:00,
2013-01-24 20:15:00,39.6,20.5,30.30,WNW,296,5.0,7.0,46,0.00,,,0.00,Wunderground v.1.15,2013-01-25 03:15:00,
2013-01-24 20:20:00,39.6,20.5,30.30,NNW,327,5.0,5.0,46,0.00,,,0.00,Wunderground v.1.15,2013-01-25 03:20:00,
2013-01-24 20:30:00,39.3,20.2,30.30,WNW,288,3.0,6.0,46,0.00,,,0.00,Wunderground v.1.15,2013-01-25 03:30:00,
2013-01-24 20:40:00,39.1,20.5,30.30,NW,321,4.0,4.0,47,0.00,,,0.00,Wunderground v.1.15,2013-01-25 03:40:00,
2013-01-24 20:45:00,39.1,20.5,30.31,NW,324,5.0,7.0,47,0.00,,,0.00,Wunderground v.1.15,2013-01-25 03:45:00,
2013-01-24 20:50:00,39.2,20.1,30.31,NW,314,4.0,4.0,46,0.00,,,0.00,Wunderground v.1.15,2013-01-25 03:50:00,
2013-01-24 20:55:00,39.3,20.2,30.31,NNW,327,4.0,7.0,46,0.00,,,0.00,Wunderground v.1.15,2013-01-25 03:55:00,
2013-01-24 21:00:00,39.3,20.7,30.31,NNW,335,4.0,6.0,47,0.00,,,0.00,Wunderground v.1.15,2013-01-25 04:00:00,
2013-01-24 21:10:00,39.5,20.4,30.32,WNW,297,5.0,5.0,46,0.00,,,0.00,Wunderground v.1.15,2013-01-25 04:10:00,
2013-01-24 21:15:00,39.5,20.9,30.32,NNW,328,4.0,8.0,47,0.00,,,0.00,Wunderground v.1.15,2013-01-25 04:15:00,
2013-01-24 21:20:00,39.5,20.9,30.32,NW,304,4.0,4.0,47,0.00,,,0.00,Wunderground v.1.15,2013-01-25 04:20:00,
2013-01-24 21:25:00,39.3,21.2,30.31,NNW,328,5.0,5.0,48,0.00,,,0.00,Wunderground v.1.15,2013-01-25 04:25:00,
2013-01-24 21:30:00,39.2,21.6,30.32,NW,325,4.0,6.0,49,0.00,,,0.00,Wunderground v.1.15,2013-01-25 04:30:00,
2013-01-24 21:35:00,39.2,21.6,30.32,NW,311,4.0,6.0,49,0.00,,,0.00,Wunderground v.1.15,2013-01-25 04:35:00,
2013-01-24 21:40:00,39.3,21.7,30.31,NNW,333,5.0,5.0,49,0.00,,,0.00,Wunderground v.1.15,2013-01-25 04:40:00,
2013-01-24 21:45:00,39.4,21.8,30.31,NNW,328,6.0,6.0,49,0.00,,,0.00,Wunderground v.1.15,2013-01-25 04:45:00,
2013-01-24 21:55:00,39.3,22.2,30.31,WNW,293,6.0,10.0,50,0.00,,,0.00,Wunderground v.1.15,2013-01-25 04:55:00,
2013-01-24 22:05:00,38.6,22.0,30.31,NW,304,4.0,5.0,51,0.00,,,0.00,Wunderground v.1.15,2013-01-25 05:05:00,
2013-01-24 22:10:00,38.4,21.8,30.31,NNW,338,4.0,4.0,51,0.00,,,0.00,Wunderground v.1.15,2013-01-25 05:10:00,
2013-01-24 22:15:00,38.2,22.6,30.31,NW,316,4.0,8.0,53,0.00,,,0.00,Wunderground v.1.15,2013-01-25 05:15:00,
2013-01-24 22:20:00,37.9,22.3,30.31,NW,306,4.0,4.0,53,0.00,,,0.00,Wunderground v.1.15,2013-01-25 05:20:00,
2013-01-24 22:25:00,37.7,22.1,30.30,NNW,329,4.0,6.0,53,0.00,,,0.00,Wunderground v.1.15,2013-01-25 05:25:00,
2013-01-24 22:30:00,37.5,22.3,30.30,NNW,327,3.0,5.0,54,0.00,,,0.00,Wunderground v.1.15,2013-01-25 05:30:00,
2013-01-24 22:35:00,37.5,22.3,30.30,NW,316,2.0,5.0,54,0.00,,,0.00,Wunderground v.1.15,2013-01-25 05:35:00,
2013-01-24 22:40:00,37.2,22.5,30.29,WNW,300,3.0,3.0,55,0.00,,,0.00,Wunderground v.1.15,2013-01-25 05:40:00,
2013-01-24 22:45:00,36.9,22.2,30.30,NW,319,3.0,3.0,55,0.00,,,0.00,Wunderground v.1.15,2013-01-25 05:45:00,
2013-01-24 22:50:00,36.0,22.2,30.30,NW,307,2.0,2.0,57,0.00,,,0.00,Wunderground v.1.15,2013-01-25 05:50:00,
2013-01-24 22:55:00,35.2,21.9,30.30,NW,322,1.0,2.0,58,0.00,,,0.00,Wunderground v.1.15,2013-01-25 05:55:00,
2013-01-24 23:00:00,35.2,22.3,30.29,NW,305,0.0,0.0,59,0.00,,,0.00,Wunderground v.1.15,2013-01-25 06:00:00,
2013-01-24 23:10:00,34.0,22.3,30.29,NW,306,0.0,0.0,62,0.00,,,0.00,Wunderground v.1.15,2013-01-25 06:10:00,
2013-01-24 23:15:00,33.0,22.1,30.29,NW,325,0.0,0.0,64,0.00,,,0.00,Wunderground v.1.15,2013-01-25 06:15:00,
2013-01-24 23:25:00,32.8,22.3,30.29,NNW,332,0.0,0.0,65,0.00,,,0.00,Wunderground v.1.15,2013-01-25 06:25:00,
2013-01-24 23:30:00,32.8,22.3,30.29,NNW,332,0.0,0.0,65,0.00,,,0.00,Wunderground v.1.15,2013-01-25 06:30:00,
2013-01-24 23:35:00,32.2,21.7,30.29,NW,325,0.0,0.0,65,0.00,,,0.00,Wunderground v.1.15,2013-01-25 06:35:00,
2013-01-24 23:40:00,31.8,21.7,30.29,NW,321,0.0,0.0,66,0.00,,,0.00,Wunderground v.1.15,2013-01-25 06:40:00,
2013-01-24 23:45:00,31.2,22.2,30.29,NW,321,0.0,0.0,69,0.00,,,0.00,Wunderground v.1.15,2013-01-25 06:45:00,
2013-01-24 23:50:00,30.7,21.7,30.29,NW,321,0.0,0.0,69,0.00,,,0.00,Wunderground v.1.15,2013-01-25 06:50:00,
2013-01-24 23:55:00,30.4,21.8,30.29,NW,309,0.0,0.0,70,0.00,,,0.00,Wunderground v.1.15,2013-01-25 06:55:00,